Medicine Lodge, KS

8:19 PM CST on February 09, 2016 (GMT -0600)
Medicine Lodge

Weather History for KP28 - January, 2014

Change the Weather History Date:

Saturday, January 4, 2014

  Actual Average Record
Temperature  
Mean Temperature 30 °F 33 °F  
Max Temperature 40 °F 44 °F 75 °F (1927)
Min Temperature 19 °F 21 °F -17 °F (1947)
Degree Days  
Heating Degree Days 35 32  
Month to date heating degree days 149 128  
Since 1 July heating degree days 2147 1927  
Cooling Degree Days 0 0  
Month to date cooling degree days 0 0  
Year to date cooling degree days 0 0  
Moisture  
Dew Point 22 °F    
Average Humidity 75    
Maximum Humidity 91    
Minimum Humidity 59    
Precipitation  
Precipitation 0.04 in 0.02 in 0.54 in (1910)
Month to date precipitation 0.11 0.07  
Year to date precipitation 0.11 0.07  
Snow  
Snow 0.00 in 0.10 in - ()
Month to date snowfall 0.0 0.2  
Since 1 July snowfall 6.5 3.1  
Snow Depth -    
Sea Level Pressure  
Sea Level Pressure 29.85 in    
Wind  
Wind Speed 16 mph (NNE)    
Max Wind Speed 38 mph    
Max Gust Speed 49 mph    
T = Trace of Precipitation, MM = Missing Value Source: NWS Daily Summary

Daily Weather History Graph

Daily Weather History Graph

Search for Another Location

Airport or City:

Trip Planner

Search our weather history database for the weather conditions in past years. The results will help you decide how hot, cold, wet, or windy it might be!

Date:

Astronomy

Jan. 04, 2014 Rise Set
Actual Time 7:48 AM CST 5:30 PM CST
Civil Twilight 7:19 AM CST 5:59 PM CST
Nautical Twilight 6:47 AM CST 6:31 PM CST
Astronomical Twilight 6:15 AM CST 7:03 PM CST
Moon 10:00 AM CST (1/4) 9:45 PM CST (1/4)
Length of Visible Light 10h 39m
Length of Day
9h 41m
Waxing Crescent, 15% of the Moon is Illuminated
Jan 4
Waxing Crescent
Jan 7
First Quarter
Jan 15
Full
Jan 23
Last Quarter
Jan 30
New

Hourly Weather History & Observations

Time (CST) Temp. Windchill Dew Point Humidity Pressure Visibility Wind Dir Wind Speed Gust Speed Precip Events Conditions
12:56 AM 34.0 °F 28.0 °F 23.0 °F 64% 29.66 in - ESE 6.9 mph - N/A   Unknown
1:56 AM 33.1 °F 23.9 °F 23.0 °F 66% 29.64 in - SE 12.7 mph - N/A   Unknown
2:56 AM 32.0 °F 23.0 °F 23.0 °F 69% 29.62 in - SE 11.5 mph - N/A   Unknown
3:56 AM 30.9 °F 23.5 °F 23.0 °F 72% 29.65 in - ESE 8.1 mph - N/A   Unknown
4:56 AM 32.0 °F 25.6 °F 23.0 °F 69% 29.65 in - ESE 6.9 mph - N/A   Unknown
5:56 AM 30.9 °F - 21.9 °F 69% 29.68 in - Calm Calm - N/A   Unknown
6:56 AM 26.1 °F 18.4 °F 21.0 °F 81% 29.70 in - NNE 6.9 mph - N/A   Unknown
7:56 AM 27.0 °F 20.5 °F 23.0 °F 85% 29.73 in - North 5.8 mph - N/A   Unknown
8:56 AM 30.9 °F 21.7 °F 25.0 °F 79% 29.76 in - North 11.5 mph - N/A   Unknown
9:56 AM 37.9 °F 28.9 °F 26.1 °F 62% 29.77 in - North 16.1 mph 24.2 mph N/A   Unknown
10:56 AM 39.9 °F 27.8 °F 27.0 °F 60% 29.80 in - NNE 33.4 mph 46.0 mph N/A   Unknown
11:56 AM 39.0 °F 27.2 °F 28.9 °F 67% 29.83 in - NNE 29.9 mph 48.3 mph N/A   Unknown
12:56 PM 34.0 °F 20.5 °F 26.1 °F 73% 29.84 in - North 28.8 mph 34.5 mph N/A   Unknown
1:56 PM 33.1 °F 20.6 °F 24.1 °F 70% 29.86 in - North 23.0 mph 36.8 mph N/A   Unknown
2:56 PM 30.9 °F 18.1 °F 23.0 °F 72% 29.89 in - North 21.9 mph 29.9 mph N/A   Unknown
3:56 PM 28.9 °F 15.4 °F 19.9 °F 69% 29.93 in - NNE 21.9 mph 32.2 mph N/A   Unknown
4:56 PM 28.0 °F 14.9 °F 19.9 °F 72% 29.95 in - North 19.6 mph 27.6 mph N/A   Unknown
5:56 PM 26.1 °F 12.0 °F 18.0 °F 71% 30.00 in - North 20.7 mph 26.5 mph N/A   Unknown
6:56 PM 25.0 °F 11.7 °F 17.1 °F 72% 30.02 in - NNE 17.3 mph 31.1 mph N/A   Unknown
7:56 PM 23.0 °F 8.0 °F 16.0 °F 74% 30.06 in - North 20.7 mph 35.7 mph N/A   Unknown
8:56 PM 21.0 °F 6.6 °F 17.1 °F 85% 30.07 in - North 17.3 mph 25.3 mph N/A   Unknown
9:56 PM 19.9 °F 5.7 °F 17.1 °F 89% 30.07 in - NNE 16.1 mph 24.2 mph 0.01 in   Unknown
10:56 PM 19.0 °F 2.4 °F 16.0 °F 88% 30.09 in - North 21.9 mph 29.9 mph 0.02 in   Unknown
11:56 PM 19.0 °F 4.5 °F 15.1 °F 85% 30.09 in - North 16.1 mph 25.3 mph 0.01 in   Unknown